Powrót do katalogu

STARLINK-3739

AktywnyŁącznośćVLEO
NORAD 52266·PAYLOAD·🇺🇸 United States

Wystrzelony Apr 21, 2022 z Cape Canaveral Space Force Station

Loading…

Następne Przeloty (najbliższe 24 godziny)

TLE

ŚwieżeSource: CelesTrak SupGP

Epoka: Sep 15, 2026, 01:32 UTC

1 52266C 22041F   26258.06437500  .00042860  00000+0  24811-2 0  2583
2 52266  53.2144 337.8261 0000740 106.5179  27.6382 15.11716137    14

Śledź STARLINK-3739 w czasie rzeczywistym z AllMySat

Download on the App Store